Location: Gorze? G�rny
(49.8500°N, 19.5000°E)
Time: 12:26:29
(UTC+00:00)

Cosmos 2084 Rocket - Pass Details

Date: 13 May 2021
Orbit: 521 x 659 km, 62.8° (Epoch: 22 June)

Event Time Altitude Azimuth Distance (km) Brightness Sun altitude
Rises 20:29:22 0° 316° (NW) 2,761 8.5 -15.8°
Reaches altitude 10° 20:31:34 10° 318° (NW) 1,883 7.3 -16.0°
Maximum altitude 20:35:49 75° 45° (NE) 615 3.5 -16.4°
Enters shadow 20:37:58 29° 126° (SE) 1,097 4.3 -16.6°
